sim
Sign-in with your pilot id or email,
or register
Callsign
Passwort

Schedule Details

Flight Number: OEO2228
Departure: Zurich Airport (LSZH) at 20:35
Arrival: Thessaloniki International Airport (LGTS) at 22:55

Weather Information
Getting current METAR information for LSZH 252120Z 30009KT 270V330 CAVOK 08/04 Q1010 NOSIG
Getting current METAR information for LGTS 252120Z 00000KT CAVOK 15/12 Q1020 NOSIG

Schedule Frequency

Route Map